Location: Dayton
(39.7590°N, 84.1920°W)
Time: 02:36:29
(UTC-05:00)

ATLAS CENTAUR R/B - Visible Passes

Search period start: 28 February 2017 00:00
Search period end: 10 March 2017 00:00
Orbit: 213 x 8008 km, 57.3° (Epoch: 25 November)

Date Brightness Start Highest point End Pass type
(mag) Time Alt. Az. Time Alt. Az. Time Alt. Az.
28 Feb 4.3 03:42:28 48° ESE 03:42:28 48° ESE 03:53:05 10° SE visible
28 Feb 5.3 06:38:21 10° W 06:44:10 17° SW 06:54:16 10° SSW visible
28 Feb 4.2 20:51:28 10° WSW 20:52:26 15° W 20:52:26 15° W visible
01 Mar 5.2 03:03:43 28° ESE 03:03:43 28° ESE 03:10:23 10° ESE visible
01 Mar 4.9 05:58:52 18° W 06:02:52 24° SW 06:15:48 10° S visible
01 Mar 1.6 20:09:48 10° SW 20:13:24 55° WNW 20:13:24 55° WNW visible
02 Mar 5.8 02:24:44 15° E 02:24:44 15° E 02:27:06 10° ESE visible
02 Mar 4.5 05:19:52 31° WSW 05:21:23 32° SW 05:35:48 10° S visible
02 Mar 1.3 19:28:20 10° SSW 19:32:53 55° SE 19:34:07 25° ENE visible
03 Mar 4.3 04:40:39 42° SSW 04:40:39 42° SSW 04:54:38 10° SSE visible
04 Mar 4.6 04:01:14 42° S 04:01:14 42° S 04:12:30 10° SSE visible
05 Mar 5.2 03:21:35 31° SE 03:21:35 31° SE 03:29:31 10° SE visible
05 Mar 5.7 06:17:19 10° WSW 06:20:47 12° SW 06:25:20 10° SW visible
05 Mar 3.7 20:27:43 10° W 20:29:16 13° NW 20:29:40 13° NW visible
06 Mar 5.8 02:41:44 19° SE 02:41:44 19° SE 02:45:49 10° SE visible
06 Mar 5.4 05:36:44 17° WSW 05:38:11 18° SW 05:47:47 10° SSW visible
06 Mar 2.7 19:44:10 10° WSW 19:47:38 32° NW 19:49:19 13° NNE visible
07 Mar 5.3 04:56:38 24° SW 04:56:38 24° SW 05:07:27 10° S visible
07 Mar 1.3 19:00:59 10° SW 19:05:44 87° NW 19:07:57 10° NE visible
08 Mar 5.4 04:16:20 27° S 04:16:20 27° S 04:25:37 10° S visible
09 Mar 5.7 03:35:48 24° SSE 03:35:48 24° SSE 03:42:38 10° SSE visible
